Location: �terpigny
(49.8910°N, 2.9249°E)
Time: 15:40:39
(UTC+00:00)

Cosmos 1605 Rocket - Pass Details

Date: 24 October 2021
Orbit: 945 x 1005 km, 82.9° (Epoch: 27 November)

Event Time Altitude Azimuth Distance (km) Brightness Sun altitude
Rises 18:41:30 0° 194° (SSW) 3,669 7.1 -20.3°
Reaches altitude 10° 18:43:59 10° 196° (SSW) 2,734 6.5 -20.7°
Maximum altitude 18:50:16 73° 281° (W) 1,041 4.2 -21.7°
Drops below altitude 10° 18:56:41 10° 7° (N) 2,786 6.4 -22.7°
Sets 18:59:15 0° 9° (N) 3,743 7.1 -23.1°
